Theta_e
307 311 314 314 317 316 316 316 313 316 315 310 312 313 313 312 311 311 312 307 302 305 311 308 306 307 307 306 303 302 304 301 299 299 299 300 300 300 300 300 300 299 299 299 299 299 299 299 298 298 298 297 296 296 296 295 295 295 295 294 294 294 293 292 291 291 290 291 291 291 291 290 290 290 290 289 289 289 289 288 288 288 287 287 287 287
309 312 318 318 316 313 313 314 311 310 310 309 310 310 311 311 311 310 308 307 303 304 312 308 305 308 306 304 301 300 302 300 298 298 298 298 299 300 300 299 300 299 299 299 299 299 299 298 298 298 297 296 296 296 295 295 295 295 294 294 294 293 292 291 291 290 290 290 290 290 290 290 290 290 290 290 289 289 289 288 288 287 287 287 287 287
315 315 318 314 308 308 311 313 311 310 309 310 311 309 311 312 312 311 307 308 306 304 311 309 306 307 305 303 301 297 298 299 298 299 298 299 299 299 300 299 299 299 299 299 299 298 298 298 298 297 297 296 296 296 295 295 295 294 294 294 293 292 291 291 290 291 291 291 291 291 291 291 290 290 290 290 290 290 289 289 288 288 287 287 287 287
315 316 312 306 304 306 309 311 310 309 310 311 309 308 312 310 310 312 310 310 309 305 307 308 307 307 306 304 301 297 297 297 298 299 299 300 300 299 299 299 299 299 299 298 298 298 298 298 297 297 297 296 296 296 295 295 294 294 294 293 293 292 291 290 290 290 291 291 291 291 291 291 291 290 290 290 290 290 290 289 289 289 288 288 287 287
315 312 303 303 308 308 308 311 309 307 312 316 312 308 311 310 308 310 310 309 309 307 305 306 309 309 306 304 301 298 298 297 298 298 298 298 299 299 299 299 299 298 298 298 298 298 297 297 297 297 296 296 296 295 295 294 294 293 293 293 292 290 289 288 288 289 290 290 290 291 291 291 291 290 290 290 290 290 290 290 289 289 289 289 288 288
313 306 302 306 310 308 308 311 311 308 310 316 315 310 309 308 306 307 309 308 309 309 306 305 310 312 307 303 301 299 298 297 297 297 297 298 298 298 298 298 298 298 298 298 297 297 297 297 297 296 296 296 295 295 294 294 293 293 293 292 291 289 288 288 287 287 289 290 290 290 290 290 290 290 290 290 290 290 290 290 289 289 289 289 289 288
308 303 304 308 309 308 308 309 311 309 308 311 312 309 308 306 305 307 307 306 309 310 305 303 308 312 308 304 301 299 298 298 297 296 296 297 297 297 298 297 298 298 297 297 297 297 297 297 296 296 295 295 294 294 293 293 293 293 292 291 289 289 288 288 287 286 287 288 289 289 289 289 290 290 290 290 290 290 289 289 289 289 289 289 289 289
306 306 307 308 309 309 309 309 310 309 310 313 309 305 307 305 304 306 305 305 308 307 305 304 305 308 308 304 300 298 298 299 298 297 296 296 297 297 297 297 297 297 297 296 297 296 296 296 296 295 295 294 294 293 293 293 292 292 291 290 289 288 288 287 286 286 286 286 286 287 288 288 288 289 289 289 289 289 289 289 289 289 289 289 289 289
306 308 308 308 309 309 311 310 306 306 309 311 307 304 304 303 304 305 304 306 306 304 308 308 303 306 308 304 301 300 299 299 298 298 296 295 296 296 296 297 296 296 296 296 296 296 296 295 295 295 294 294 293 293 292 292 291 290 290 289 288 288 287 287 286 285 285 285 284 285 285 286 287 288 288 288 288 288 288 288 288 289 289 289 289 289
306 306 306 307 308 309 312 309 304 307 307 305 304 303 304 305 305 305 304 306 306 305 310 310 303 307 309 303 303 303 299 299 298 297 296 295 296 296 296 296 295 295 295 295 296 295 295 295 295 294 294 294 293 292 291 291 290 289 289 288 288 287 287 286 286 285 285 284 284 283 283 283 285 286 286 286 287 287 287 287 288 289 289 289 288 288
306 303 303 305 306 305 306 303 301 304 302 301 303 306 307 307 305 305 305 306 306 309 312 309 304 306 308 303 301 301 299 299 299 297 296 295 295 296 295 295 295 295 295 295 295 295 295 295 295 295 294 293 292 290 290 289 289 289 288 288 287 287 286 286 285 285 284 284 283 282 282 281 282 283 284 284 285 286 287 288 288 288 288 288 288 288
308 305 303 303 302 301 302 302 302 301 300 302 307 308 307 309 307 306 309 307 307 312 313 307 303 304 307 303 299 299 299 299 298 297 297 295 295 295 295 295 295 295 295 295 295 295 295 295 294 293 292 291 290 289 289 289 288 288 288 287 287 286 285 285 285 284 284 283 282 282 281 281 282 282 282 283 283 284 285 287 287 287 286 286 286 287
313 308 303 302 301 301 303 305 307 306 305 306 309 310 309 312 311 309 312 309 309 314 308 302 303 304 303 301 299 298 298 297 296 296 296 295 295 295 294 294 294 294 295 294 294 294 294 293 292 291 290 289 289 288 288 288 288 288 287 286 285 284 284 283 283 283 282 281 281 281 281 281 281 281 281 281 282 283 284 285 285 285 285 285 286 286
312 310 305 304 304 301 302 305 308 308 306 305 307 310 311 310 309 311 312 308 308 311 304 300 303 303 301 299 298 297 296 295 295 295 295 295 295 294 294 294 294 294 294 293 294 294 293 291 290 289 289 288 288 288 288 288 287 286 285 284 283 283 282 281 281 280 280 280 280 280 280 279 279 280 280 281 282 283 283 284 284 284 284 285 285 285
308 310 309 307 304 302 302 303 304 304 305 306 306 306 308 310 308 309 311 308 308 310 305 302 303 303 301 298 296 295 294 294 295 295 295 295 295 294 294 294 293 293 293 293 293 292 291 290 288 288 288 288 288 288 287 287 286 284 283 282 282 281 281 280 279 279 278 278 278 278 278 278 279 280 281 281 282 282 282 282 282 283 283 283 284 284
306 309 307 303 300 301 303 301 300 302 305 305 303 302 306 309 308 307 309 307 306 307 307 305 301 299 298 297 295 294 293 294 295 295 295 295 295 294 294 293 293 292 292 293 292 290 289 288 288 288 287 287 287 287 286 285 284 283 282 282 281 280 280 279 278 278 277 277 277 277 278 278 279 279 279 280 280 281 281 281 281 281 282 282 282 282
306 309 307 302 299 299 300 300 299 301 304 303 301 304 304 303 304 306 306 304 302 304 306 304 300 298 297 297 296 295 294 295 294 294 295 295 294 294 293 293 292 292 292 292 291 288 288 288 287 287 287 287 286 285 284 284 282 282 281 280 279 279 278 278 277 277 277 277 277 277 277 277 277 277 277 277 277 278 279 279 280 280 280 280 281 281
304 307 308 303 303 300 296 297 298 297 300 304 304 305 302 300 303 306 305 306 306 306 307 305 301 299 300 299 297 296 296 295 295 294 294 294 294 293 292 292 291 291 291 291 289 288 287 287 287 287 286 286 285 284 283 282 281 280 279 278 278 277 277 277 276 276 276 277 277 276 276 276 276 276 276 276 276 277 277 278 278 279 279 279 280 280
303 305 306 301 302 302 297 298 303 299 297 300 302 301 300 302 307 307 304 306 306 305 308 306 300 299 301 300 298 296 295 295 294 294 293 293 293 292 291 290 290 291 291 289 288 287 287 286 286 286 285 285 284 283 282 281 280 279 278 277 276 276 276 276 276 276 276 275 275 275 275 275 275 275 275 276 276 277 277 277 278 278 278 278 278 278
303 304 306 302 299 301 300 301 307 307 299 297 298 299 300 302 306 306 303 305 307 305 306 307 303 301 300 299 297 296 295 294 294 293 293 293 292 291 290 290 290 291 289 288 287 287 286 286 286 285 284 284 283 282 281 280 279 278 276 276 275 275 275 275 276 275 275 274 274 275 275 275 275 275 275 276 276 276 276 277 277 277 277 277 277 277
303 303 306 307 302 301 304 304 306 308 303 301 302 303 302 301 303 304 302 302 306 306 306 306 306 301 296 296 296 295 294 293 293 292 292 292 291 290 289 290 290 290 288 288 287 287 286 285 285 284 283 283 282 281 280 278 277 276 275 275 275 275 275 275 275 274 274 274 274 274 274 274 274 274 274 275 275 275 276 276 276 277 276 276 276 275
303 303 304 307 303 303 306 304 302 303 304 305 305 305 306 305 304 304 303 302 302 303 305 305 305 300 295 295 295 294 294 293 292 291 290 290 290 289 289 289 289 289 288 288 287 286 285 284 284 283 282 281 280 279 278 276 275 275 275 275 275 275 275 274 273 273 273 274 274 273 273 273 272 272 273 273 274 274 274 275 275 274 274 274 274 274
299 300 302 304 302 302 303 299 296 298 301 302 301 301 304 305 304 303 305 305 303 301 301 302 303 299 294 294 295 294 293 292 291 290 289 289 289 289 289 288 288 288 288 288 287 285 284 283 283 282 281 279 278 277 276 275 274 274 274 274 274 273 273 273 272 273 273 273 273 272 272 271 271 272 272 273 273 273 273 273 273 273 273 273 273 273
298 300 301 303 303 302 303 299 294 295 299 300 300 301 301 301 303 304 304 304 303 303 302 301 302 299 295 294 294 294 292 291 290 289 289 288 288 288 288 287 287 288 287 287 286 284 283 282 281 280 279 278 277 276 275 274 274 274 273 273 273 272 272 272 272 273 273 273 272 271 271 271 271 272 272 272 272 272 272 273 272 272 272 272 272 272
300 302 302 303 304 304 306 307 303 302 303 302 301 301 300 299 301 301 300 300 301 301 301 302 302 298 295 294 293 292 291 290 289 289 288 287 287 288 287 286 287 286 286 285 284 283 282 281 279 278 278 277 276 275 273 273 273 272 272 272 272 271 272 272 272 272 272 271 270 270 270 271 271 271 272 272 271 271 272 272 272 271 271 271 271 271
299 302 301 302 303 303 305 307 305 304 303 302 301 299 299 299 299 299 300 302 302 300 299 302 302 298 295 292 291 289 289 289 288 288 288 287 287 288 287 286 286 285 284 284 283 281 280 279 279 278 277 276 275 273 272 272 272 272 271 271 271 271 271 271 271 271 270 269 269 269 270 270 271 271 271 271 270 271 271 271 271 271 270 270 270 270
300 302 301 302 303 302 302 302 301 301 301 301 300 300 300 299 298 300 302 302 301 300 300 301 299 297 294 290 289 288 288 288 288 287 287 286 286 287 286 285 285 284 283 283 282 280 280 279 278 277 276 274 273 272 272 271 271 271 271 270 270 271 271 271 271 270 269 269 269 269 270 270 270 270 269 270 270 270 269 269 269 269 269 268 268 268
301 302 301 301 302 301 300 300 299 299 298 298 299 300 301 299 298 300 301 300 300 301 301 298 296 297 293 288 288 288 287 288 287 287 287 286 286 286 285 284 283 283 282 282 280 279 278 277 277 275 274 273 272 271 271 271 270 270 270 270 270 270 270 270 270 269 268 268 268 269 269 269 269 269 269 269 269 268 268 268 268 268 267 267 267 267
299 301 300 300 301 300 299 299 298 298 298 298 298 298 299 299 299 299 299 298 298 299 300 297 295 296 291 288 288 288 287 287 287 286 286 285 285 285 284 283 283 282 281 280 279 278 277 276 275 274 273 272 271 271 270 270 270 270 270 270 269 270 269 269 269 268 268 268 268 269 269 268 268 268 268 268 268 268 268 268 267 267 267 267 266 266
297 302 301 299 300 300 299 298 298 299 299 298 296 296 297 297 297 297 297 296 296 297 297 294 294 294 290 287 288 287 287 287 286 286 286 285 285 284 283 282 282 281 280 278 277 276 276 275 274 273 271 271 270 270 270 269 269 269 269 269 269 269 269 269 268 267 268 268 268 268 268 268 268 268 268 268 268 268 267 267 267 267 267 266 266 265
296 301 300 299 300 301 301 300 299 299 300 299 296 295 295 296 297 297 297 296 296 297 296 293 293 293 289 287 288 288 287 287 286 285 285 284 284 283 282 282 281 279 278 277 276 275 275 274 272 271 270 270 270 269 269 269 269 269 269 268 268 268 268 268 268 267 268 268 268 268 268 268 268 267 268 267 267 267 267 267 267 266 266 266 266 265
297 299 300 300 300 301 302 301 299 298 299 299 298 295 295 296 296 295 295 294 294 295 295 293 293 292 289 288 288 287 287 286 285 285 284 284 283 282 282 281 279 278 276 275 275 274 273 272 271 270 270 269 269 268 268 268 268 268 268 268 268 268 268 268 268 268 268 268 268 268 267 268 267 267 268 267 267 267 266 266 266 266 266 265 265 265
297 298 300 300 299 301 302 299 298 298 299 300 297 294 294 294 293 293 294 293 292 292 293 293 292 290 289 288 287 287 286 285 284 284 284 283 281 281 281 279 277 276 275 274 274 273 272 271 270 270 269 269 268 268 267 267 267 267 267 267 267 268 268 268 268 268 268 267 267 267 267 267 267 267 268 267 267 266 266 266 265 265 265 265 265 265
297 297 298 297 298 302 302 299 298 300 301 299 294 292 294 294 292 293 293 292 290 290 291 290 289 288 288 287 286 286 285 284 284 284 283 282 281 281 280 278 277 276 274 273 272 271 271 270 269 269 268 268 268 267 267 267 267 267 267 267 267 267 267 268 267 267 267 267 267 267 267 267 267 267 267 267 266 266 265 265 265 264 264 264 264 265
298 298 297 297 297 300 301 300 302 303 300 295 292 291 292 292 292 292 292 290 289 289 289 288 288 288 287 286 285 284 284 283 283 283 282 281 281 280 278 277 276 275 273 272 271 271 270 269 268 268 268 267 267 267 267 267 267 267 267 267 267 267 267 267 267 267 266 266 267 267 266 266 266 266 266 266 266 265 265 264 264 264 264 264 264 264
297 297 297 297 298 299 299 300 301 299 295 293 293 292 291 292 292 291 291 290 288 288 288 287 287 287 286 285 284 283 282 282 282 283 282 280 280 279 277 276 275 273 272 271 270 270 269 268 268 268 267 267 267 267 266 266 266 266 266 266 266 266 266 266 266 266 266 266 266 266 266 266 266 266 266 265 265 264 264 264 263 263 263 263 263 263
296 297 297 297 299 298 298 300 299 297 295 294 294 292 290 291 291 290 291 290 287 287 287 286 286 286 285 284 283 282 282 282 282 282 281 279 279 277 276 275 274 273 271 270 269 269 268 268 268 268 267 267 267 266 266 266 266 266 266 266 266 266 266 266 265 265 265 265 265 265 265 265 265 265 265 264 264 263 263 263 263 263 262 262 262 263
293 295 295 297 299 298 297 298 298 299 299 295 291 290 290 290 290 289 290 290 287 286 286 285 285 284 284 283 282 281 281 281 280 281 280 278 277 276 275 274 273 272 271 269 269 268 268 268 267 267 267 267 266 266 265 266 266 266 266 266 266 266 266 265 265 265 265 265 265 265 265 265 265 265 264 264 263 263 262 262 262 262 262 261 261 262
294 294 296 299 299 297 296 296 298 300 298 292 289 289 289 290 289 288 289 290 287 285 285 284 284 284 283 282 281 281 281 280 279 280 279 277 276 275 274 273 272 271 270 269 268 268 267 267 267 267 267 266 266 265 265 265 265 265 265 265 265 265 265 265 265 265 265 265 265 264 264 264 265 264 264 264 263 262 262 262 261 261 261 261 261 262
299 298 298 299 298 296 295 296 297 298 294 290 288 289 289 289 289 288 289 290 286 284 284 284 284 283 282 281 280 280 280 279 279 279 278 277 276 275 274 272 271 270 269 268 268 267 267 267 267 267 266 266 265 265 265 265 265 265 265 265 265 265 264 264 264 264 265 265 264 264 264 264 264 264 264 263 262 262 262 261 261 261 261 261 261 261
299 298 296 296 296 296 296 296 295 293 291 288 288 289 289 289 289 289 290 288 285 285 284 283 283 283 281 280 280 279 279 279 278 277 277 276 275 273 272 271 270 269 268 268 267 266 266 266 266 266 266 266 265 265 265 264 265 265 265 264 264 264 264 264 264 264 264 265 264 264 264 264 264 264 263 263 262 261 261 261 261 261 261 261 261 262
297 297 296 295 295 294 294 295 294 292 290 287 288 289 288 289 289 289 288 286 285 285 283 282 282 282 281 280 279 278 278 278 277 276 276 275 274 272 271 270 269 269 268 267 267 266 266 266 266 266 266 265 265 265 264 264 264 264 264 264 264 263 264 264 264 264 264 264 264 264 264 264 264 264 263 262 261 260 261 261 261 261 261 261 262 262
295 296 297 295 293 292 293 294 294 292 290 288 288 289 288 288 288 287 286 285 284 284 282 281 281 281 280 279 278 277 277 276 276 276 275 274 273 272 270 269 268 268 267 267 267 266 266 266 265 265 265 265 265 264 264 264 264 264 264 264 263 263 264 264 264 264 264 264 264 264 264 264 264 264 263 262 260 260 260 261 261 261 261 262 262 263
292 293 296 294 292 293 295 294 292 290 289 288 288 288 287 286 286 285 284 284 283 282 281 281 281 280 279 278 277 276 276 275 275 274 273 273 272 270 269 269 268 267 267 267 266 266 265 265 265 265 265 265 264 264 264 263 264 264 264 263 263 263 263 263 263 264 264 264 264 264 264 264 264 264 264 262 260 260 260 261 261 261 261 262 262 263
292 291 292 292 292 292 292 292 290 289 288 287 287 286 285 285 284 283 283 283 282 281 281 280 280 279 278 277 276 276 275 274 274 273 273 272 271 270 269 268 267 267 267 266 266 266 265 265 265 265 265 265 264 264 264 263 263 263 263 263 263 263 263 263 263 264 264 263 264 264 264 264 264 264 264 262 260 260 260 260 260 261 261 262 262 263
290 289 291 292 291 289 288 289 289 288 287 287 286 285 284 284 283 283 283 282 281 281 280 279 279 278 277 276 275 274 274 273 273 272 272 271 270 269 268 267 267 267 266 266 266 265 265 265 265 265 265 265 264 264 264 263 263 263 263 263 263 263 263 263 263 263 263 263 263 263 263 263 263 264 264 263 261 260 260 261 260 260 261 262 262 263
289 289 290 291 290 288 288 289 288 287 287 286 285 284 284 284 283 283 282 281 280 279 279 278 278 277 276 275 274 273 273 272 272 271 271 270 269 268 267 267 267 266 266 265 265 265 265 264 264 264 264 264 264 264 263 263 263 262 262 263 263 262 262 262 263 263 263 263 263 263 263 263 263 263 263 263 262 260 261 262 261 260 261 262 262 263
290 290 289 289 288 288 288 288 287 287 287 286 285 285 284 283 283 282 281 280 279 278 278 277 276 276 275 274 273 272 272 271 271 271 270 269 268 267 267 267 266 266 266 265 265 265 264 264 264 264 264 264 264 264 263 263 263 263 262 262 262 262 262 262 262 263 263 263 263 263 262 262 262 262 262 263 262 260 260 261 261 261 261 261 262 263
289 289 288 288 288 288 288 288 286 286 286 286 286 284 283 282 282 281 280 280 278 277 277 276 276 275 274 273 272 271 271 271 270 270 269 268 268 267 266 266 266 265 265 265 265 265 264 264 264 264 264 264 264 263 263 263 263 263 262 262 262 262 262 262 262 263 263 262 262 262 262 262 262 261 261 262 262 261 261 260 260 260 261 262 262 263
288 288 288 287 287 287 288 287 286 285 285 285 285 283 282 281 281 280 280 279 277 277 276 275 275 274 273 273 272 271 270 270 270 269 269 268 267 267 266 266 265 265 265 265 265 265 264 264 264 263 264 264 264 263 263 263 263 262 262 262 262 262 262 262 262 262 262 262 262 262 262 262 262 261 261 260 261 261 262 262 261 261 261 261 262 264
288 288 288 288 287 287 287 286 285 284 284 284 283 282 282 281 281 280 279 278 277 276 276 275 274 273 272 272 271 270 270 270 269 268 268 267 267 266 266 266 265 265 265 265 265 264 264 264 264 264 264 264 263 263 263 263 262 262 262 262 262 262 262 261 262 262 262 262 262 262 262 261 261 261 261 260 260 260 261 263 264 264 263 262 263 265
Wind_Speed
2 1 2 5 7 8 7 7 7 6 5 2 1 2 4 5 6 6 4 4 2 2 6 6 4 8 12 13 12 14 11 11 11 11 16 21 25 26 27 27 23 21 19 16 14 13 12 12 11 11 10 8 8 9 8 9 12 15 17 20 24 27 30 32 33 33 30 27 26 27 26 26 25 24 25 24 23 23 22 21 20 19 19 19 18 18
2 2 6 8 9 8 6 5 4 3 2 2 1 3 4 3 6 6 2 5 2 1 5 1 2 9 12 10 11 15 9 7 13 17 20 25 29 29 29 26 22 21 18 16 15 13 12 12 12 11 9 7 8 8 8 10 13 15 18 23 27 29 32 33 34 32 29 27 27 28 28 28 28 27 28 29 28 27 26 25 24 23 21 21 20 19
3 5 8 7 5 2 2 4 4 2 2 2 1 1 3 3 5 5 3 5 2 1 4 4 4 9 11 8 9 12 5 4 14 22 27 30 30 28 27 25 24 22 19 18 16 14 13 12 12 10 7 7 6 5 7 10 13 16 20 24 27 30 32 33 33 31 29 28 28 28 28 29 29 30 31 33 32 31 31 30 29 27 25 23 23 22
2 5 6 3 3 3 2 4 5 4 2 0 1 1 4 3 2 3 4 5 3 2 3 4 4 6 8 6 7 13 14 16 21 27 30 32 31 28 27 24 23 22 20 18 16 15 12 11 11 9 7 6 4 4 7 11 15 19 22 25 27 30 32 33 32 30 29 30 29 29 29 29 30 32 33 34 34 33 33 33 32 31 29 27 26 26
5 5 2 3 4 3 1 3 3 1 3 3 4 4 5 4 3 5 4 5 4 3 1 3 4 3 5 5 6 11 18 22 26 31 29 30 31 29 27 24 22 22 20 19 17 15 12 10 11 9 6 4 2 5 10 14 17 20 22 24 27 30 33 34 32 30 30 31 31 31 31 31 32 33 34 35 35 34 34 35 34 34 33 31 31 30
6 4 2 2 3 4 1 3 1 4 2 5 4 7 6 4 4 3 5 5 4 4 2 4 4 3 4 6 6 7 11 14 18 25 24 25 28 28 28 25 23 22 20 19 17 15 13 11 9 7 5 4 5 9 13 16 18 19 21 24 26 31 35 37 34 30 28 29 30 32 33 34 35 35 36 36 37 37 36 37 37 36 35 34 34 33
3 3 3 2 2 4 3 3 4 5 2 3 4 4 5 4 1 3 4 3 1 3 3 3 3 4 4 6 6 5 10 10 11 16 17 22 26 27 27 24 22 21 19 18 16 14 13 9 7 7 6 6 8 11 14 16 18 19 22 24 27 32 37 40 38 34 31 29 29 30 32 34 35 37 38 38 38 38 38 38 38 37 36 35 35 35
2 2 4 4 4 3 2 2 4 6 5 3 4 4 4 1 3 1 2 1 2 3 4 2 4 2 3 3 5 3 10 9 8 10 12 19 24 25 26 23 22 21 18 17 15 13 12 10 9 7 7 8 10 12 14 16 18 20 22 24 27 33 39 41 40 39 36 33 32 32 32 33 33 35 37 37 38 38 38 40 40 39 38 36 36 36
1 1 1 2 4 1 3 4 3 6 3 5 5 4 2 2 2 3 4 2 1 2 4 4 3 2 3 3 4 3 8 8 7 7 8 15 21 23 25 23 22 20 17 16 14 13 12 9 8 7 7 8 11 14 16 18 19 21 23 25 29 35 41 42 42 42 40 38 35 34 34 35 33 33 35 36 37 37 37 39 40 39 39 37 37 37
1 1 2 3 2 2 5 5 4 6 3 3 4 3 1 3 2 3 4 2 2 2 3 5 3 3 2 3 4 3 5 5 4 5 6 12 18 22 24 23 21 19 17 15 14 12 10 8 6 6 8 10 13 15 17 19 20 22 25 27 33 40 43 45 45 45 45 42 38 36 35 35 35 36 37 38 38 38 37 37 39 39 39 39 38 37
2 1 1 3 1 4 4 3 3 4 3 1 3 1 4 4 3 3 2 3 4 2 5 6 3 3 0 2 2 2 2 5 5 5 5 10 17 21 23 22 20 19 17 15 13 10 8 7 7 8 10 12 15 17 18 19 22 24 27 31 38 43 45 47 48 48 47 45 41 38 36 35 35 35 37 38 39 38 36 35 37 39 40 39 38 37
5 3 0 1 1 1 1 1 2 1 1 2 3 3 3 4 3 3 4 3 3 4 5 4 3 3 1 2 2 2 1 3 5 6 5 8 16 20 21 21 20 18 16 13 13 12 11 11 11 11 13 16 17 17 18 21 24 26 30 37 43 46 47 49 50 49 48 45 42 38 36 34 33 34 36 37 37 37 35 34 36 38 40 39 38 38
4 1 2 3 1 1 2 2 3 4 4 3 2 3 3 4 3 2 3 1 2 5 3 1 1 2 0 2 1 4 4 4 7 10 11 12 17 20 21 20 18 17 16 15 15 15 15 12 12 14 17 18 17 17 20 23 26 30 36 43 46 47 47 48 49 48 45 41 38 35 34 34 34 35 36 35 36 36 35 35 36 38 39 39 38 37
4 4 4 2 1 1 2 1 3 2 2 1 0 2 2 1 2 3 4 2 3 4 3 1 1 1 1 1 2 4 4 8 13 15 17 18 19 20 20 20 19 17 17 17 16 14 12 12 15 18 19 17 16 18 21 25 29 36 42 45 44 45 46 46 45 43 40 37 35 35 36 36 34 33 32 31 31 32 32 33 35 36 37 37 37 37
1 4 3 1 0 1 1 3 3 2 1 2 2 4 3 3 2 3 3 2 4 4 3 3 1 2 3 2 3 5 7 12 16 17 18 19 18 19 19 21 21 18 17 17 13 10 11 14 18 20 17 16 17 21 25 30 36 42 44 44 44 46 46 45 44 42 39 39 39 38 36 33 29 27 28 28 29 29 30 32 33 35 35 35 36 37
1 4 5 2 1 1 1 2 3 2 1 2 1 3 1 3 3 2 3 4 3 2 3 1 1 1 3 3 2 5 9 13 16 17 17 17 17 19 19 20 18 16 16 14 10 12 13 17 19 17 15 17 20 26 31 36 42 44 45 46 47 47 45 44 43 43 42 41 38 34 30 29 29 30 31 32 33 33 33 34 35 35 36 35 36 36
1 5 5 2 1 1 1 1 1 1 1 0 1 1 4 4 5 1 2 1 2 1 3 1 4 2 3 3 1 4 7 9 11 13 15 15 15 16 16 15 15 16 15 10 10 13 15 19 19 14 15 20 25 31 36 41 44 44 44 46 46 45 43 43 43 42 41 38 34 31 31 34 36 37 36 36 36 36 35 35 35 35 35 34 33 34
0 5 5 2 1 2 0 1 2 1 2 2 2 4 2 1 4 3 0 3 3 1 4 1 6 5 4 4 0 4 6 6 6 8 11 12 11 12 13 14 15 14 11 8 10 14 18 20 17 14 19 25 31 36 40 42 43 43 43 44 44 44 45 44 43 40 37 34 33 35 39 41 40 37 35 33 32 31 30 30 30 30 31 32 32 34
0 4 6 2 1 3 2 1 3 3 1 2 3 3 1 1 1 1 1 1 1 1 3 3 2 4 3 3 3 3 4 4 4 5 7 7 8 10 13 15 14 11 9 9 11 16 20 19 16 18 26 31 36 40 42 44 44 44 44 43 43 44 44 42 39 36 33 33 37 42 42 40 36 33 31 30 29 28 26 26 25 27 29 31 33 35
1 1 5 3 2 3 3 1 1 3 2 1 2 3 0 3 3 1 1 2 2 2 2 3 2 1 3 3 5 4 3 5 5 4 4 7 9 11 14 14 12 11 10 11 15 20 22 20 20 25 31 35 39 42 44 45 46 45 44 44 44 45 43 40 37 35 36 40 43 43 39 35 32 31 30 28 26 24 23 24 26 29 32 34 37 38
1 1 4 5 4 3 2 2 4 3 2 0 0 2 2 1 1 0 0 2 2 2 3 1 3 3 1 2 6 6 4 5 5 4 6 8 10 13 15 13 12 13 12 12 18 23 22 22 25 30 34 38 42 43 44 45 45 44 44 44 45 44 41 38 37 39 42 43 42 39 36 33 31 29 28 27 26 25 27 29 32 35 38 40 42 44
0 1 3 4 4 3 5 5 5 5 4 4 2 2 3 1 0 2 4 2 1 2 4 3 3 4 0 3 4 5 5 5 5 6 7 9 13 15 13 12 14 15 13 15 21 23 23 25 29 33 36 39 41 41 42 44 43 43 43 43 42 39 37 36 39 42 42 41 38 35 32 30 30 32 33 32 31 32 34 38 40 42 44 47 49 49
1 1 1 5 5 6 9 5 2 3 4 4 1 1 2 2 3 2 4 3 2 1 2 3 1 3 1 4 5 6 7 6 7 8 8 11 14 12 11 14 16 16 16 18 21 23 23 26 30 33 36 38 39 40 43 43 42 41 41 41 39 36 34 37 41 41 40 38 35 31 30 33 38 40 40 39 37 36 37 40 42 43 45 47 48 48
1 1 1 4 5 5 7 4 3 1 2 2 1 1 1 0 2 5 5 2 1 3 0 1 2 2 2 5 8 6 5 6 8 10 9 11 14 11 13 18 18 18 19 20 21 22 24 27 30 33 36 39 41 43 45 43 41 41 41 40 38 35 37 40 40 39 38 35 31 31 37 41 43 43 43 43 42 42 41 41 42 42 43 44 45 44
2 1 1 4 6 6 6 5 5 4 2 1 2 1 1 1 4 3 1 3 0 3 2 2 3 1 4 5 6 3 2 3 5 8 10 14 17 14 16 20 18 18 20 19 20 23 25 28 31 34 38 41 43 45 43 39 39 41 40 39 38 38 40 40 40 39 37 31 31 38 44 45 44 44 44 44 45 45 45 44 44 43 43 43 43 43
1 2 0 1 3 4 4 4 4 3 3 2 2 2 2 1 2 2 0 2 1 2 2 2 2 2 6 4 2 0 1 1 3 12 16 20 20 13 15 19 17 20 22 20 22 24 26 30 34 37 41 42 43 43 40 38 39 39 39 39 39 39 41 41 41 39 33 31 37 44 46 45 45 45 46 46 46 46 46 46 46 45 44 44 43 42
1 1 2 4 6 6 6 7 4 2 4 6 6 6 5 2 1 3 2 1 3 1 1 1 2 3 3 1 3 3 3 4 9 16 19 22 18 12 15 18 18 22 24 22 24 27 30 34 37 40 41 41 41 41 38 39 39 39 40 41 41 41 42 42 41 36 31 36 43 46 45 46 46 46 47 47 48 48 48 47 47 46 46 45 44 43
3 2 3 4 7 8 7 9 8 4 4 7 7 7 5 2 2 4 2 2 3 2 2 1 3 2 1 2 5 5 6 6 10 15 19 22 18 13 15 19 22 26 25 23 26 29 32 36 38 40 41 41 41 40 38 39 39 39 41 41 42 42 42 43 40 34 34 41 45 46 46 47 47 47 47 48 48 49 48 48 47 47 46 45 44 42
3 3 4 2 6 10 8 7 7 4 3 2 4 4 2 3 4 3 1 0 3 1 4 2 4 3 1 3 4 4 6 8 11 15 20 22 17 14 18 22 26 26 23 24 27 29 32 36 39 41 41 41 40 38 38 39 39 40 41 41 42 42 42 42 39 35 39 44 45 45 46 46 47 47 47 48 49 48 48 47 47 46 45 43 42 40
3 3 3 1 5 11 9 5 4 2 1 4 6 5 4 4 4 3 2 2 2 2 3 2 4 2 1 1 3 4 10 14 15 17 22 22 17 16 21 25 25 23 22 25 28 30 34 38 38 39 40 39 38 38 38 39 39 40 40 41 42 42 42 41 38 38 41 44 44 45 46 46 47 47 47 48 48 47 47 47 46 45 43 41 39 38
1 2 2 3 3 9 8 5 4 2 3 5 6 7 6 6 6 5 3 4 4 3 3 5 5 3 1 4 5 7 12 15 16 21 24 20 16 17 22 25 23 22 25 29 30 32 36 37 37 38 38 37 36 37 38 38 39 39 40 42 42 42 42 40 38 40 42 43 44 45 46 46 47 47 47 47 47 47 47 46 45 43 41 39 37 36
1 2 3 5 3 6 5 6 6 4 6 5 6 8 7 6 4 3 3 3 1 2 5 7 5 4 2 5 6 8 12 14 17 23 23 17 15 18 22 22 20 24 30 32 31 34 36 35 36 38 37 35 35 36 37 38 38 39 41 42 42 42 41 40 39 41 42 43 44 45 46 46 47 47 47 47 47 46 45 45 43 42 39 37 36 35
1 1 2 3 2 5 5 7 6 3 4 3 4 5 3 3 4 4 2 2 1 0 2 3 3 3 4 5 6 8 12 14 19 24 21 15 16 20 22 21 21 27 33 33 32 34 34 34 36 37 35 34 34 35 37 36 37 39 41 41 42 41 41 41 40 41 42 44 44 45 46 46 47 47 47 47 47 46 44 43 42 40 38 37 36 35
2 2 1 1 1 5 7 8 5 3 1 4 2 3 2 2 5 7 4 1 1 1 1 2 4 4 5 7 7 10 11 15 22 23 16 13 19 23 24 22 25 30 34 32 32 33 33 34 35 35 34 33 34 35 36 36 36 39 40 40 41 41 41 41 41 42 43 44 45 45 45 46 47 47 47 47 46 44 43 41 40 38 36 36 36 36
2 1 1 1 1 3 5 6 5 2 3 4 2 4 3 2 3 7 3 2 2 2 1 2 5 6 8 9 9 11 14 20 23 17 11 16 23 24 23 24 28 32 33 32 32 32 32 34 35 35 34 33 34 36 36 37 38 39 40 40 41 41 41 41 42 42 43 44 44 45 45 46 47 47 47 46 44 43 42 40 39 38 36 36 36 36
1 1 1 1 1 1 3 4 2 3 2 1 1 5 5 3 5 8 3 1 2 4 3 5 7 7 8 9 9 13 19 22 18 11 10 17 21 20 22 25 28 32 32 30 29 30 32 33 35 35 34 33 35 36 37 38 39 39 40 40 40 41 41 41 42 43 44 45 45 45 45 46 47 47 46 45 43 42 40 40 40 39 38 38 38 37
4 2 1 1 0 1 1 3 3 2 3 3 3 5 5 3 4 6 4 1 2 6 6 6 7 8 9 10 11 16 21 18 11 8 11 18 21 21 23 26 28 31 31 29 28 30 31 32 33 34 34 34 35 36 37 38 38 40 41 41 41 41 41 42 43 44 45 45 45 45 46 46 46 46 45 43 42 41 40 40 40 40 40 41 41 40
3 1 1 1 1 2 2 3 4 3 3 1 2 7 10 8 8 6 4 2 4 8 7 7 8 8 9 10 13 19 20 12 6 7 12 17 20 22 24 27 30 32 31 30 30 30 31 32 33 33 33 34 34 35 36 37 38 39 40 41 41 42 42 43 44 44 45 46 46 46 46 45 45 44 43 42 40 40 40 40 41 42 42 42 43 42
4 2 3 3 2 2 3 1 1 2 3 2 3 10 13 14 12 6 2 2 2 6 9 10 10 9 9 11 15 18 15 7 4 8 14 18 20 23 27 29 30 31 31 30 29 29 31 32 33 32 32 33 34 35 36 37 37 39 40 40 41 41 42 44 44 45 46 46 45 46 45 45 44 43 41 40 39 39 40 41 42 43 43 43 42 42
5 4 3 3 2 1 1 1 2 3 2 1 5 12 15 14 9 4 3 4 2 5 10 13 11 9 8 10 12 11 7 5 8 13 18 20 22 25 28 29 30 32 32 30 28 28 30 32 33 33 33 33 34 35 36 37 38 38 39 39 40 41 42 44 44 45 45 45 45 45 44 43 43 41 39 38 38 38 39 41 42 43 43 42 42 41
3 2 2 2 1 2 1 1 3 3 1 3 11 15 16 11 4 1 4 6 6 10 13 14 11 9 8 10 9 7 7 12 18 21 20 20 23 25 27 30 30 31 31 29 27 28 31 32 32 32 32 33 34 35 36 37 38 38 38 39 40 41 42 43 44 44 45 45 44 44 43 42 41 40 38 36 37 39 40 40 41 42 42 42 40 39
2 2 2 2 2 3 1 1 5 3 1 7 14 12 10 7 2 3 7 10 13 15 15 15 13 9 8 11 10 11 17 22 22 20 20 22 25 27 29 30 30 30 30 29 28 29 31 32 32 32 32 32 33 35 36 37 38 38 38 39 40 41 42 42 43 44 44 44 44 43 43 43 41 39 37 36 38 40 40 40 40 40 40 39 38 37
1 1 3 2 1 2 2 3 4 3 3 12 13 6 5 4 3 8 12 14 14 14 14 15 12 8 9 12 14 18 25 25 20 20 22 25 27 28 29 30 30 30 30 29 29 31 31 32 33 33 32 33 33 34 35 36 37 38 38 39 40 41 42 42 43 44 44 44 44 43 43 43 41 39 37 37 38 40 40 40 40 40 39 37 37 37
1 2 1 2 0 2 1 3 1 2 7 13 9 2 2 4 7 10 12 13 13 13 13 12 10 9 12 16 20 25 26 22 20 22 24 26 28 30 30 29 29 30 30 29 31 31 31 33 34 33 33 33 33 34 35 36 37 38 38 38 40 41 42 43 43 44 44 44 43 43 43 42 41 39 37 37 39 40 40 41 41 40 38 36 37 38
0 1 2 2 1 1 3 4 2 3 11 12 5 4 7 8 10 10 11 14 16 15 14 12 11 13 18 21 24 26 23 20 21 23 25 27 29 30 29 29 29 29 29 29 30 31 32 33 33 34 34 33 33 34 35 35 35 37 38 38 39 41 42 43 44 44 44 44 43 43 43 42 41 39 37 37 39 40 41 41 41 40 37 36 38 39
3 6 1 1 3 4 3 2 3 9 16 12 4 7 13 14 15 16 18 19 18 17 18 15 14 19 23 24 26 25 22 22 23 24 26 28 30 30 29 29 29 28 28 30 30 31 32 32 32 33 34 33 34 34 35 34 33 35 37 38 39 40 41 42 43 44 44 44 44 43 43 43 42 40 38 37 38 39 40 40 40 39 37 37 39 39
6 11 6 1 3 4 3 2 7 15 20 13 6 12 20 22 22 22 20 18 17 18 19 17 18 23 25 25 25 23 21 22 23 25 27 29 30 30 29 28 28 28 28 29 30 30 31 32 33 34 34 35 35 35 34 34 33 33 35 36 38 39 40 41 42 43 43 44 44 44 43 42 41 40 39 38 39 40 39 38 38 38 37 37 38 38
5 10 6 1 2 4 6 5 12 20 20 11 9 19 25 24 23 20 16 15 17 18 18 19 21 24 24 24 23 21 21 22 23 25 28 30 30 29 27 27 28 28 28 29 29 30 31 32 33 33 34 35 36 35 35 34 33 33 34 35 37 39 40 41 41 42 42 43 44 44 42 41 40 40 40 39 39 40 40 38 38 37 35 34 35 36
6 6 4 3 4 5 6 8 15 18 11 6 12 24 24 20 20 18 16 18 20 20 20 22 23 23 23 23 22 20 21 22 23 25 29 30 28 27 27 27 27 28 28 29 28 29 30 31 32 33 34 34 35 35 35 34 33 33 34 35 36 38 39 40 41 41 41 43 43 43 42 41 39 39 40 40 39 40 39 37 35 34 33 33 31 29
6 3 4 4 4 4 5 7 11 10 7 10 20 25 21 19 20 19 19 21 21 21 23 24 24 23 23 23 21 21 22 23 23 27 29 28 26 26 26 27 28 28 28 28 28 29 29 30 31 32 33 34 34 34 34 33 32 33 33 34 36 37 38 39 40 40 41 42 43 42 41 40 39 39 39 39 39 40 40 37 34 30 30 32 29 23
5 3 4 4 4 7 11 13 12 10 11 17 23 24 22 21 20 19 21 23 23 24 25 25 24 24 24 23 23 23 23 22 24 27 27 25 25 24 25 27 27 28 28 28 29 30 30 30 31 32 32 33 33 33 33 32 32 32 33 34 35 35 36 37 38 39 40 40 41 41 40 39 39 39 39 38 38 40 40 40 38 32 29 30 28 23
Wind_Direction
103 340 263 233 238 245 239 211 211 206 155 130 176 197 249 257 275 271 279 292 175 150 258 238 242 270 272 274 294 314 289 225 196 156 134 132 132 129 122 117 116 114 114 116 109 97 87 80 77 69 59 68 80 69 46 27 16 13 10 3 0 359 356 354 353 353 350 343 338 334 331 330 329 331 332 331 329 325 320 316 315 316 317 316 315 316
76 257 247 232 232 236 233 193 170 163 113 58 182 244 284 247 261 270 272 310 357 122 268 290 342 276 276 290 313 316 296 198 165 145 126 123 123 120 118 115 114 112 111 109 101 91 85 80 77 68 68 85 86 69 41 21 16 11 3 359 359 358 355 355 355 354 350 345 340 336 333 331 329 330 332 332 332 330 326 320 315 312 313 313 313 315
8 258 258 244 219 173 91 95 98 98 89 60 139 267 295 261 278 299 314 318 1 138 269 337 344 287 293 311 335 343 346 149 151 140 127 123 120 116 116 113 109 106 102 99 91 86 83 80 78 74 87 102 90 65 30 15 8 1 357 357 357 356 355 356 355 353 348 343 339 334 331 328 325 327 329 329 330 330 329 327 322 315 310 310 312 315
309 259 266 253 162 112 33 38 65 51 34 174 207 256 272 280 312 288 306 316 300 229 256 313 311 293 318 337 1 21 57 89 110 117 116 117 114 110 109 106 103 100 95 93 86 82 80 76 78 83 108 115 88 45 18 6 360 357 358 357 355 355 355 354 352 349 344 339 335 331 328 325 322 321 324 325 327 327 326 326 325 322 315 311 312 316
245 256 310 53 80 102 260 330 49 59 320 292 218 218 248 269 242 232 280 314 309 310 305 342 335 318 346 8 11 33 66 82 96 101 100 104 105 101 98 95 95 94 92 91 87 81 76 76 87 98 119 121 58 25 10 2 359 357 356 354 355 357 356 354 348 344 341 337 334 330 326 323 320 319 320 321 323 323 322 321 322 323 320 316 314 316
261 287 356 50 52 74 139 282 258 176 281 313 241 218 219 220 227 260 316 342 356 339 331 25 18 302 331 28 18 27 63 69 84 92 91 95 95 92 90 89 91 91 88 86 82 77 72 76 93 108 111 76 32 17 7 2 357 353 351 351 355 357 356 356 352 346 340 336 335 332 327 323 319 317 317 318 319 319 318 318 318 319 319 316 313 313
273 340 31 118 107 70 75 289 247 165 127 310 255 197 173 166 235 313 347 8 2 272 287 63 106 252 318 18 358 25 75 69 72 81 83 88 87 86 87 87 88 87 84 81 75 70 69 77 95 97 78 43 19 9 2 355 348 346 348 349 352 353 355 357 356 350 341 333 330 329 327 324 320 316 314 315 315 315 315 314 314 315 316 315 313 310
234 358 33 83 85 70 71 290 242 143 118 257 233 146 146 223 288 276 101 121 226 263 317 23 138 205 305 339 323 43 82 69 64 72 76 84 85 85 86 85 84 82 78 75 69 65 72 86 90 75 49 25 8 359 352 347 343 344 346 347 349 351 352 354 354 351 345 335 325 320 319 320 320 317 314 313 312 311 311 310 310 311 312 312 311 309
225 277 309 113 75 44 227 235 204 143 147 251 213 160 202 264 232 163 138 187 259 17 324 298 134 150 268 298 329 38 86 81 81 81 80 86 85 84 83 81 78 75 70 67 64 69 80 86 77 52 24 5 354 349 347 345 344 343 343 345 346 347 348 350 349 348 346 340 330 320 314 312 312 312 311 311 311 309 308 307 306 307 308 309 309 307
286 228 233 147 127 245 232 233 194 161 209 249 168 154 19 44 89 111 128 137 45 43 268 257 162 135 271 312 338 8 86 111 117 91 88 91 84 82 78 72 68 64 61 63 66 75 80 73 54 16 348 341 343 346 346 344 343 342 343 344 343 343 345 346 346 345 344 341 335 326 320 314 310 309 309 310 309 310 309 306 305 305 305 307 308 306
311 75 128 109 173 221 202 227 207 181 217 81 87 36 14 33 47 53 79 91 60 303 251 247 203 138 253 311 312 294 136 147 138 104 91 86 80 77 70 62 58 57 60 63 63 64 56 30 1 341 335 341 349 350 346 344 343 342 342 341 340 341 342 342 342 342 340 339 335 329 324 320 317 315 315 314 312 313 313 311 311 308 307 308 309 307
350 45 256 336 294 206 107 276 257 282 334 79 71 33 9 348 14 30 357 46 88 258 262 249 203 131 131 284 324 331 32 124 125 121 117 90 78 72 64 58 55 54 53 49 40 26 7 353 347 348 351 356 357 352 348 346 344 341 340 339 339 340 341 340 340 339 337 335 333 329 325 322 320 319 318 317 315 315 315 314 314 313 310 310 309 307
343 310 285 326 334 130 87 335 319 354 32 65 60 51 31 341 358 4 309 326 191 246 263 210 165 91 152 232 24 27 34 83 113 121 114 95 80 68 59 55 52 46 38 27 14 360 353 358 4 3 2 4 2 353 348 345 342 340 339 340 340 340 340 338 337 336 334 333 331 328 324 320 318 317 318 319 317 317 317 315 315 313 312 311 309 309
332 305 319 346 322 100 115 125 309 328 36 33 214 111 93 33 6 302 274 286 274 262 260 281 48 82 171 244 67 66 81 103 107 104 94 84 75 63 55 48 39 33 25 10 357 355 7 20 13 5 4 5 358 350 345 342 340 340 341 342 341 339 338 336 335 335 334 333 329 325 322 321 321 321 320 320 319 317 316 315 314 312 310 309 308 309
349 304 290 195 224 36 133 186 191 184 201 244 192 130 142 160 165 253 237 226 266 281 289 301 2 156 165 130 104 110 94 89 92 88 81 75 64 54 46 33 26 21 11 0 1 24 34 22 10 6 6 1 352 347 344 342 342 342 343 342 340 337 336 336 336 336 334 330 327 325 324 323 322 318 314 312 310 309 309 309 310 309 309 309 309 308
149 266 257 244 240 152 171 207 144 91 337 260 135 95 178 186 157 217 208 192 215 323 315 297 53 30 132 122 95 90 75 71 78 74 67 63 54 45 36 23 17 10 359 360 25 41 27 12 9 8 3 355 350 347 345 344 343 343 342 340 337 336 335 336 336 335 332 330 329 330 327 321 316 313 309 306 303 301 300 301 303 304 306 308 308 306
9 277 273 328 311 148 132 233 93 38 309 7 78 217 232 179 127 133 271 323 66 68 282 170 118 89 114 127 350 52 67 56 61 60 54 55 50 39 29 17 6 358 355 7 36 30 13 9 9 5 357 351 348 347 345 343 343 342 340 337 336 335 335 336 336 334 332 332 333 331 325 321 320 318 315 311 308 304 302 301 302 302 303 304 303 300
231 275 291 353 304 303 56 282 335 357 155 133 211 238 246 114 94 96 275 343 21 209 262 178 146 168 154 154 37 47 59 40 36 48 48 50 46 33 20 7 358 359 8 25 30 17 7 9 10 0 352 349 347 345 343 342 342 340 338 337 336 336 336 337 336 335 335 335 332 328 326 326 325 324 323 324 323 320 317 316 314 310 306 301 298 297
129 280 300 332 239 298 347 9 331 323 198 173 220 236 111 127 267 19 129 262 325 240 281 317 157 171 180 171 124 71 70 57 34 45 49 33 26 23 7 359 2 12 25 28 20 11 8 11 8 354 348 346 344 343 341 341 341 340 338 337 337 337 338 339 338 338 338 334 330 329 330 330 330 334 338 339 338 336 331 324 318 313 307 302 300 300
33 258 287 291 251 301 355 37 285 302 309 347 323 316 29 165 193 201 167 181 193 220 250 315 340 176 220 189 134 121 100 69 39 34 30 2 6 10 357 356 8 17 24 24 14 7 7 6 357 348 345 342 341 340 340 341 340 339 338 338 338 339 340 340 341 340 336 333 332 332 332 334 340 345 344 340 337 333 322 310 305 305 303 301 300 300
359 200 263 290 314 324 323 228 199 211 248 106 29 293 287 288 236 288 253 149 140 189 196 244 282 251 248 124 127 122 94 68 52 28 359 354 2 358 353 2 12 14 17 13 5 2 1 356 347 343 341 338 338 339 340 341 340 339 339 339 339 340 340 341 340 337 335 334 334 334 336 342 348 345 334 326 321 314 306 300 299 298 297 296 295 295
325 200 247 292 321 295 263 247 191 178 176 157 172 209 188 175 104 310 292 295 83 181 180 169 252 261 251 103 119 111 92 72 49 23 356 358 0 352 357 12 11 10 10 1 359 358 354 348 342 338 337 337 340 341 341 341 340 339 339 339 340 341 341 340 337 336 335 335 335 338 342 344 339 330 323 319 314 307 302 299 297 296 295 294 294 294
135 119 265 279 272 262 276 284 154 165 162 145 173 201 141 136 131 176 245 273 322 268 174 140 234 268 192 99 89 97 100 78 41 20 7 3 357 354 9 14 9 11 5 353 352 351 346 342 338 337 339 341 343 341 340 341 340 339 340 341 343 344 341 337 336 336 335 335 339 343 339 332 328 326 326 324 320 315 310 306 303 302 301 300 300 300
38 83 318 287 283 295 308 338 68 66 100 110 307 2 121 241 129 160 195 188 219 262 280 149 253 241 155 97 88 100 99 66 34 18 11 359 354 2 14 8 7 8 358 348 347 346 341 338 338 341 343 343 342 340 340 341 339 340 342 343 345 343 338 337 337 336 337 339 340 337 332 330 331 330 330 329 327 325 322 318 316 314 311 309 308 307
334 254 19 326 324 336 341 357 358 345 24 37 291 8 66 50 90 118 148 79 176 249 162 173 258 221 144 115 95 86 29 61 37 16 10 359 357 4 8 4 2 357 349 345 345 343 339 340 343 344 343 342 339 339 341 341 339 341 343 345 345 341 338 339 339 338 341 341 335 332 333 334 333 332 332 331 330 328 326 325 323 321 319 317 315 313
285 228 102 354 300 303 306 305 301 304 319 298 283 335 329 236 147 166 176 74 183 260 130 158 248 141 130 108 81 331 289 192 12 7 4 358 356 357 359 0 358 352 348 345 343 341 341 344 344 343 341 340 339 340 341 340 339 341 343 344 343 340 340 341 341 342 343 336 331 333 335 335 334 334 334 332 331 329 328 328 326 325 324 322 319 317
78 271 223 191 219 246 257 261 269 315 304 289 294 307 307 293 147 124 109 151 181 218 299 181 129 136 153 352 336 342 8 7 359 359 355 352 351 349 353 356 354 351 347 342 340 341 342 343 342 340 340 339 339 340 340 339 340 341 342 342 342 342 343 342 342 343 338 331 332 335 336 336 336 335 334 332 332 331 329 329 328 327 326 325 322 320
71 313 264 212 236 252 253 268 291 319 281 276 293 293 288 329 44 104 137 234 154 107 271 237 55 41 227 351 354 355 12 7 352 350 347 344 341 341 350 351 348 348 346 341 342 344 344 343 341 340 339 338 339 339 340 340 340 340 341 341 342 343 343 342 342 340 333 332 335 337 337 337 336 335 334 333 332 330 329 328 328 327 326 325 323 322
113 262 258 216 271 276 270 271 284 288 269 314 345 313 295 18 35 75 123 208 113 151 247 284 14 355 331 359 346 360 14 354 342 343 342 339 336 342 350 348 347 348 348 346 347 347 345 342 339 338 338 338 339 339 340 340 339 339 340 341 342 343 343 343 342 337 333 335 337 337 338 337 335 334 334 332 331 329 329 328 327 327 326 325 324 323
120 255 260 177 294 294 295 295 296 295 343 36 21 9 35 49 48 65 63 39 49 266 249 13 4 308 169 26 347 12 1 344 337 339 339 339 344 351 349 347 350 353 351 349 349 346 342 339 337 337 337 338 339 339 340 340 338 339 340 341 342 343 342 342 340 336 335 337 337 337 338 336 335 334 333 332 331 329 328 327 326 326 325 324 324 323
96 271 301 68 338 299 305 334 354 25 96 79 33 18 27 34 34 36 17 12 13 320 316 9 349 280 150 50 13 352 345 341 339 339 339 344 352 352 350 351 353 351 348 348 346 341 339 337 336 337 338 338 339 339 340 339 338 339 340 341 341 341 341 341 339 336 336 337 337 337 337 336 334 334 333 332 331 329 328 327 327 326 326 325 324 323
56 291 346 47 8 290 303 346 353 42 97 80 28 10 12 25 20 344 334 4 14 290 322 344 330 281 326 14 354 336 341 346 342 335 335 346 357 353 354 358 353 347 348 347 343 339 338 337 336 338 339 339 339 339 340 339 338 339 340 340 340 340 340 340 338 338 337 338 338 337 336 335 334 333 333 332 331 329 329 328 327 327 327 327 326 325
84 35 342 29 330 275 296 327 338 54 73 357 344 342 340 35 21 332 322 6 22 200 327 316 281 275 318 339 340 344 349 348 337 329 331 349 1 356 355 355 348 347 348 345 339 337 337 335 336 337 338 339 339 339 340 340 339 339 339 340 339 339 339 339 339 339 338 338 339 338 336 336 335 333 333 333 331 330 329 329 329 329 328 328 327 326
60 76 262 254 255 274 297 323 355 52 345 267 281 334 294 127 44 354 319 305 23 69 143 251 272 307 345 356 356 351 344 335 327 323 330 359 1 353 351 348 344 346 346 342 337 335 334 333 335 338 339 340 339 339 340 341 339 339 339 339 338 338 339 339 340 340 339 339 339 338 337 336 335 334 333 333 332 330 330 330 330 330 330 329 328 328
30 45 259 231 178 264 307 3 24 338 249 212 193 356 346 144 33 345 305 177 37 356 351 335 329 347 3 1 355 345 332 328 326 325 345 2 354 348 346 343 343 344 343 339 334 332 332 334 336 340 341 340 340 340 341 342 341 339 340 340 339 339 340 341 341 341 340 339 339 339 338 337 335 335 334 333 332 331 331 332 332 332 332 330 329 329
128 149 260 227 182 299 357 22 350 254 250 209 310 352 8 23 359 351 343 166 344 344 7 359 342 351 354 342 339 339 332 329 329 333 352 353 347 343 342 341 341 342 340 337 331 329 331 335 338 341 341 340 341 342 342 342 341 340 340 341 340 341 342 342 342 342 340 340 340 340 339 338 336 335 335 334 333 333 334 335 336 337 335 332 329 329
145 131 21 348 222 81 3 293 282 289 337 2 348 345 353 347 339 344 322 255 34 32 25 360 340 341 339 329 332 339 336 334 332 339 351 348 341 337 338 339 337 336 337 334 329 328 332 336 340 342 342 342 343 343 342 342 342 341 341 341 342 342 343 344 343 342 341 341 341 341 340 339 337 336 335 334 334 335 337 338 339 340 338 334 330 329
133 158 99 118 324 65 76 321 342 351 311 274 303 325 328 319 312 313 280 238 62 44 22 356 343 337 334 333 338 342 342 339 331 336 342 341 338 336 336 335 332 332 335 335 330 330 334 338 342 343 343 343 344 344 343 342 342 342 341 342 343 343 345 345 344 342 341 341 341 341 340 339 338 336 335 334 335 337 339 341 341 340 339 336 332 330
45 24 99 99 359 43 73 349 302 234 245 237 292 316 323 319 314 319 288 256 37 30 7 355 346 337 341 342 343 347 348 340 326 330 328 330 335 335 331 330 330 333 336 336 333 333 336 339 342 343 344 345 345 344 344 343 343 343 342 343 344 345 346 346 344 343 342 341 341 340 340 339 338 337 336 335 337 340 341 342 341 339 338 336 334 332
23 9 49 52 344 351 89 272 252 230 229 302 312 319 325 321 323 358 332 295 347 8 356 353 344 334 345 346 343 352 352 313 312 320 317 319 326 327 327 329 332 336 337 337 335 335 337 340 342 344 345 346 345 345 344 343 344 343 343 344 345 346 347 346 344 343 342 341 340 340 339 339 338 338 337 338 340 342 344 343 341 338 338 337 335 333
5 355 34 61 356 347 69 250 294 277 213 328 323 326 334 333 341 30 293 301 342 345 342 348 337 321 335 341 334 329 312 307 311 310 310 317 324 327 329 331 333 336 337 337 337 337 338 341 343 344 344 344 344 344 345 344 343 343 343 345 346 347 347 345 344 343 343 342 341 340 340 340 340 339 339 341 344 345 344 344 341 339 338 337 336 334
1 334 358 54 11 350 82 228 309 284 198 344 332 334 357 0 325 297 316 327 335 330 329 337 330 313 325 332 322 312 315 318 317 310 310 321 328 331 332 332 334 337 337 338 339 339 339 341 342 344 345 345 345 345 345 344 342 343 344 346 347 347 346 345 344 344 343 342 341 341 340 340 341 341 341 345 348 346 344 343 343 342 340 339 338 338
137 327 324 310 312 355 13 359 328 266 324 353 345 345 35 34 320 319 325 323 324 322 324 331 328 318 324 327 321 320 323 323 318 311 315 324 329 331 332 334 337 338 337 339 340 340 340 340 342 344 346 347 346 346 346 344 342 343 345 346 346 346 345 345 345 344 345 344 342 342 342 341 341 342 343 347 350 347 344 344 345 344 343 343 342 342
100 106 290 278 157 95 19 337 263 233 334 355 3 16 16 340 322 325 320 315 323 330 327 326 324 323 327 327 325 326 326 322 316 316 322 328 330 331 333 336 338 338 339 340 340 340 340 341 342 344 346 347 347 347 347 346 343 343 345 346 346 345 345 345 345 345 346 345 344 344 343 342 342 343 345 349 350 348 346 346 346 346 346 347 346 343
19 357 211 224 297 199 230 257 234 358 354 358 19 26 356 338 333 335 327 323 330 335 333 326 320 324 329 328 326 328 327 321 319 322 327 329 330 332 335 337 338 339 339 340 340 340 341 341 342 343 344 346 347 347 347 347 344 343 344 345 345 345 345 345 345 345 346 346 346 346 344 343 343 344 346 350 350 349 348 347 346 346 348 349 347 343
24 7 1 185 324 301 269 292 350 353 349 349 2 2 356 351 343 337 331 328 327 331 334 327 316 321 327 328 328 329 326 321 321 324 327 329 330 333 335 336 338 339 339 340 340 340 340 341 343 343 344 346 347 347 347 347 346 344 344 344 344 345 345 345 345 345 347 347 348 348 346 344 344 345 347 349 350 350 350 349 347 347 348 349 346 342
23 16 16 56 351 326 307 22 16 346 334 331 349 353 346 342 336 330 325 321 321 328 332 326 320 324 327 328 330 328 323 322 324 325 328 330 331 333 335 337 338 340 341 341 340 340 341 342 343 344 344 345 346 347 346 346 347 346 344 344 344 344 344 345 345 346 347 348 349 349 347 346 346 347 347 348 350 351 351 352 351 349 348 348 346 342
348 5 11 27 341 299 273 305 341 333 319 310 342 346 339 332 328 326 321 318 323 330 329 325 325 328 328 330 331 327 323 324 326 328 330 331 331 333 336 337 338 340 342 341 340 341 342 343 344 344 344 344 345 345 345 346 346 345 344 345 345 344 344 345 346 347 348 349 349 349 348 348 348 349 348 348 350 350 350 353 353 350 348 347 343 339
334 348 349 311 295 286 273 306 334 332 311 288 328 335 333 326 323 324 323 323 329 332 327 325 327 328 329 331 331 326 324 325 327 329 330 330 331 334 336 337 339 341 341 340 340 342 343 344 344 344 343 343 343 343 343 344 345 344 345 346 346 345 345 344 345 347 348 349 349 349 349 349 350 351 350 349 349 349 349 351 351 348 345 344 343 342
0 344 333 331 323 317 312 326 337 331 296 301 322 329 330 325 320 321 326 330 332 330 325 325 328 328 330 333 332 327 325 325 326 328 328 329 332 335 336 338 340 340 340 340 340 342 344 344 344 343 342 341 341 342 342 344 344 344 346 347 346 346 346 345 345 347 349 349 349 350 349 349 351 352 352 351 350 348 348 349 352 352 349 347 349 354
19 343 330 331 295 292 303 313 322 313 295 308 323 328 327 321 317 322 328 330 328 326 325 326 328 330 331 332 330 327 324 324 326 327 327 329 332 335 338 340 340 339 340 340 340 342 344 345 344 343 341 340 340 341 342 344 346 345 346 347 347 347 347 346 346 348 349 349 349 350 350 350 351 353 353 352 351 350 349 348 350 355 359 359 2 6